PDT,Max TemperatureF,Mean TemperatureF,Min TemperatureF,Max Dew PointF,MeanDew PointF,Min DewpointF,Max Humidity, Mean Humidity, Min Humidity, Max Sea Level PressureIn, Mean Sea Level PressureIn, Min Sea Level PressureIn, Max VisibilityMiles, Mean VisibilityMiles, Min VisibilityMiles, Max Wind SpeedMPH, Mean Wind SpeedMPH, Max Gust SpeedMPH,PrecipitationIn, CloudCover, Events, WindDirDegrees
2011-10-1,61,57,53,53,50,44,96,83,58,29.99,29.93,29.86,10,8,2,8,4,,0.01,7,,164
2011-10-2,64,58,51,55,52,49,94,84,60,29.99,29.93,29.83,10,10,3,7,1,17,0.13,7,Rain,333
2011-10-3,62,58,53,55,52,48,96,85,70,29.86,29.84,29.81,10,10,7,7,2,,0.13,8,Rain,135
2011-10-4,64,56,50,52,47,41,96,77,45,29.80,29.63,29.44,10,10,8,9,2,,0.02,6,Rain,157
2011-10-5,55,53,51,52,50,48,100,87,75,29.78,29.58,29.44,10,9,6,7,3,,0.01,8,Rain,167
2011-10-6,59,54,50,52,50,48,96,89,69,30.07,29.94,29.77,10,8,2,5,2,,0.47,8,Rain,127
2011-10-7,59,56,52,54,51,49,94,86,75,30.23,30.14,30.07,10,9,2,8,4,,0.01,8,Rain,165
2011-10-8,66,55,44,52,48,43,100,85,52,30.25,30.20,30.09,10,7,0,7,1,,0.01,5,Fog,172
2011-10-9,61,56,51,54,52,49,100,90,69,30.12,30.04,29.83,10,7,1,8,2,,0.00,7,Rain,127
2011-10-10,61,56,51,55,52,49,100,90,72,29.80,29.62,29.52,10,8,2,14,3,21,0.01,7,Rain,148
2011-10-11,60,56,51,54,51,48,100,86,68,30.10,29.82,29.57,10,8,2,14,6,23,0.88,7,Rain,152
2011-10-12,62,54,48,50,46,42,94,78,53,30.26,30.20,30.11,10,10,9,9,5,16,0.11,4,,139
2011-10-13,59,50,42,47,45,42,100,83,57,30.27,30.19,30.06,10,10,6,15,3,,0.03,3,,330
2011-10-14,57,54,50,48,46,45,89,81,69,30.05,30.02,29.99,10,10,6,12,8,,0.01,5,Rain,333
2011-10-15,55,48,42,47,45,41,100,88,72,30.14,30.08,30.04,10,10,8,10,3,,0.00,4,,335
2011-10-16,50,48,46,46,45,43,93,87,80,30.35,30.19,30.06,10,7,6,4,1,,0.01,7,,316
2011-10-17,60,50,41,46,43,39,100,81,57,30.45,30.39,30.32,10,8,5,12,4,,0.00,3,,305
2011-10-18,66,56,46,50,46,43,93,77,48,30.32,30.13,29.96,10,10,7,17,9,,0.00,0,,319
2011-10-19,61,54,48,52,49,46,93,79,67,30.11,30.02,29.94,10,10,8,9,4,,0.01,6,,161
2011-10-20,57,54,50,53,49,46,100,85,77,30.14,30.11,30.08,10,9,2,7,4,,0.00,7,,133
2011-10-21,57,52,48,55,51,48,100,96,87,30.24,30.16,30.11,10,8,2,16,3,24,0.00,8,Rain,146
2011-10-22,61,57,53,59,56,54,100,97,88,30.24,30.16,30.09,10,7,2,13,5,22,0.01,8,Rain,156
2011-10-23,59,54,50,54,50,43,100,90,62,30.23,30.19,30.12,10,10,10,12,2,,0.00,5,,170
2011-10-24,54,49,42,46,44,40,100,86,59,30.40,30.28,30.17,10,9,2,5,2,,0.77,5,Rain-Thunderstorm,95
2011-10-25,55,46,37,44,41,37,100,85,62,30.50,30.45,30.40,10,10,10,12,2,,0.00,3,,334
2011-10-26,50,42,35,45,38,35,100,86,61,30.43,30.32,30.22,10,10,7,13,2,,0.04,5,Rain,152
2011-10-27,54,48,41,45,42,39,100,87,59,30.35,30.28,30.09,10,8,2,8,2,,0.00,4,,337
2011-10-28,55,48,42,50,45,39,96,87,57,30.12,29.98,29.88,10,8,2,9,3,21,0.41,7,Rain,151
2011-10-29,57,50,44,47,45,40,100,83,53,30.33,30.25,30.15,10,10,9,7,2,,0.00,4,,149
2011-10-30,59,51,43,56,48,42,100,91,77,30.23,30.10,30.04,10,8,2,12,5,17,0.05,7,Rain,153
2011-10-31,53,46,41,44,42,37,93,80,58,30.49,30.37,30.25,10,10,10,7,2,,0.00,5,,142